[[{"header":{"parameterUnit":"m.s-1","parameterCategory":1,"la1":30.2991,"la2":30.254,"lo1":-89.0895,"lo2":-89.0444,"dy":0.0017,"dx":0.0017,"nx":28,"ny":28,"refTime":"2024-02-26T03:00:00:Z","depth":0,"parameterNumber":2,"parameterNumberName":"U-component_of_WINDS"},"data":[0,0,0,0,0,0,0,0,0,0,0,0,0,0,0,0,0,0,0,0,0,0,0,0,0,0,0,0,0,0,0,0,0,0,0,0,0,0,0,0,0,0,0,0,0,0,0,0,0,0,0,0,0,0,0,0,0,0,-0.9534,-0.9536,0,-0.9685,-0.9687,-0.9689,-0.9797,-0.9798,-0.9799,-0.98,-0.9952,-0.9956,-0.9959,0,0,0,0,0,0,0,0,0,0,0,0,0,-0.9337,-0.934,-0.9534,-0.9536,-0.9538,-0.9685,-0.9687,-0.9689,-0.9797,-0.9798,-0.9799,-0.98,-0.9951,-0.9955,-0.9959,0,0,0,0,0,0,0,0,0,0,0,0,0,-0.9449,-0.9341,-0.9533,-0.9609,-0.9617,-0.9685,-0.9687,-0.969,-0.9797,-0.9798,-0.9799,-0.9801,-0.995,-0.9955,-0.996,-0.9963,0,0,-0.9974,-0.9977,0,0,0,0,0,0,0,0,-0.9443,-0.9456,-0.9596,-0.9604,-0.9613,-0.9724,-0.9674,-0.9781,-0.9796,-0.9729,-0.98,-0.9801,-0.9875,-0.9886,-0.9912,-0.997,-0.9977,-0.9975,-0.9978,-0.998,-0.9981,0,0,0,0,0,0,0,-0.9435,-0.945,-0.9594,-0.9598,-0.9609,-0.9636,-0.9653,-0.9695,-0.9792,-0.9735,-0.9743,-0.9759,-0.988,-0.9907,-0.9916,-0.9979,-0.9975,-0.9979,-0.9982,-0.9984,-1.005,-1.0049,0,0,0,0,0,0,-0.9415,-0.9443,-0.9589,-0.9598,-0.953,-0.9638,-0.9657,-0.9687,-0.9792,-0.981,-0.9758,-0.9764,-0.9898,-0.991,-0.9922,-0.9933,-0.998,-0.9984,-0.9987,-1.0051,-1.005,-1.0048,0,0,0,0,0,0,-0.9411,-0.9427,-0.9583,-0.9523,-0.9545,-0.964,-0.9672,-0.9689,-0.9716,-0.981,-0.9828,-0.9767,-0.9899,-0.9915,-0.9953,-0.994,-0.9987,-0.9991,-1.0052,-1.0051,-1.0049,-0.9955,0,0,0,0,0,0,-0.9405,-0.9425,-0.9427,-0.9522,-0.9548,-0.961,-0.9672,-0.9691,-0.9724,-0.9733,-0.9823,-0.984,-0.9902,-0.9945,-0.9957,-0.9948,-0.9995,-1.0054,-1.0052,-1.005,-0.996,-0.9951,-0.9943,0,0,0,0,0,-0.9397,-0.9393,-0.9426,-0.9443,-0.9552,-0.961,-0.9624,-0.9696,-0.9723,-0.9726,-0.9787,-0.9837,-0.994,-0.9948,-0.9963,-0.9954,-1.0055,-1.0052,-1.005,-0.9964,-0.9952,-0.9943,0,0,0,0,0,0,-0.9292,-0.9407,-0.9445,-0.9472,-0.953,-0.9628,-0.9633,-0.9681,-0.9732,-0.9739,-0.9825,-0.9845,-0.9873,-0.9918,-0.9925,-0.9964,-1.0004,-1.0004,-0.9933,-0.9923,-0.9915,-0.9902,-0.9999,0,0,0,0,0,-0.9273,-0.931,-0.9409,-0.9423,-0.9451,-0.9537,-0.9564,-0.9615,-0.9679,-0.9704,-0.9767,-0.9826,-0.9873,-0.9901,-0.9948,-0.9968,-0.9989,-0.997,-0.9961,-0.9954,-0.9952,-0.9967,-0.9959,-1.004,-1.004,-1.004,0,0,-0.9232,-0.9299,-0.9317,-0.9404,-0.9455,-0.9492,-0.9557,-0.9592,-0.962,-0.9709,-0.9748,-0.9797,-0.987,-0.9898,-0.9914,-0.9936,-0.9935,-0.995,-0.9944,-0.9946,-0.9963,-0.9956,-0.9949,-1.0038,-1.0038,-1.0039,0,0,-0.9176,-0.9231,-0.9249,-0.93,-0.9377,-0.9435,-0.944,-0.9531,-0.9567,-0.9609,-0.9676,-0.9712,-0.9789,-0.9838,-0.9873,-0.9839,-0.9887,-0.9852,-0.9806,-0.9819,-0.9813,-0.9808,-0.9795,-0.979,-0.9851,-0.9851,-0.9851,0,-0.9114,-0.9173,-0.9252,-0.9285,-0.9321,-0.9405,-0.9425,-0.947,-0.9558,-0.9582,-0.9606,-0.9706,-0.9761,-0.9803,-0.9795,-0.9821,-0.9828,-0.9841,-0.9808,-0.9803,-0.9799,-0.9788,-0.9784,-0.9846,-0.9846,-0.9847,-0.9847,0,-0.9094,-0.9133,-0.9139,-0.9224,-0.9261,-0.9287,-0.9371,-0.9399,-0.9448,-0.9503,-0.9545,-0.9614,-0.9678,-0.9692,-0.9739,-0.9741,-0.9753,-0.9791,-0.9832,-0.9786,-0.9777,-0.9773,-0.9839,-0.9841,-0.9842,-0.9843,0,0,-0.8971,-0.9103,-0.9103,-0.9144,-0.9237,-0.9269,-0.93,-0.9363,-0.9386,-0.9445,-0.9473,-0.9538,-0.9575,-0.9615,-0.9669,-0.9681,-0.965,-0.9718,-0.9721,-0.9702,-0.9656,-0.9625,-0.9619,-0.9684,-0.9683,-0.9683,-0.965,0,-0.8928,-0.8987,-0.9062,-0.9095,-0.9133,-0.9216,-0.9243,-0.9303,-0.9357,-0.9397,-0.9457,-0.9501,-0.9547,-0.9572,-0.9587,-0.965,-0.9641,-0.9654,-0.9709,-0.971,-0.9686,-0.9615,-0.9582,-0.9547,-0.9647,-0.9647,-0.9646,0,-0.8885,-0.8941,-0.8979,-0.9071,-0.909,-0.9112,-0.9178,-0.9216,-0.9287,-0.9325,-0.9371,-0.943,-0.9467,-0.9506,-0.9558,-0.9564,-0.9592,-0.9627,-0.9627,-0.9633,-0.9673,-0.9617,-0.9538,-0.9532,-0.9642,-0.9642,-0.9643,0,-0.8791,-0.8877,-0.8911,-0.8943,-0.9051,-0.9065,-0.9111,-0.9184,-0.9218,-0.9276,-0.9299,-0.9359,-0.9392,-0.9438,-0.9512,-0.9533,-0.9556,-0.9601,-0.9588,-0.9586,-0.9587,-0.9585,-0.9509,-0.9608,-0.9608,-0.9608,-0.9608,0,-0.8733,-0.8753,-0.887,-0.889,-0.8915,-0.9002,-0.9024,-0.9078,-0.9142,-0.9175,-0.9251,-0.928,-0.9377,-0.9418,-0.9477,-0.9511,-0.9525,-0.9557,-0.9572,-0.9549,-0.9545,-0.9566,-0.957,-0.9607,-0.9607,-0.9607,-0.9607,0,-0.863,-0.871,-0.8752,-0.8853,-0.8879,-0.8893,-0.8979,-0.9003,-0.9063,-0.9103,-0.9118,-0.9211,-0.9263,-0.9343,-0.9419,-0.9458,-0.9482,-0.9508,-0.9458,-0.9467,-0.945,-0.9449,-0.9383,-0.9378,-0.9481,-0.948,-0.9479,0,-0.8587,-0.8604,-0.8708,-0.8736,-0.878,-0.8823,-0.886,-0.8947,-0.8981,-0.9065,-0.9078,-0.9137,-0.9188,-0.9268,-0.9342,-0.9401,-0.9428,-0.9401,-0.9437,-0.9414,-0.9426,-0.9423,-0.9426,-0.9391,-0.9389,-0.9388,-0.9387,0,-0.8502,-0.8541,-0.859,-0.8654,-0.8695,-0.875,-0.8807,-0.8826,-0.8926,-0.8961,-0.9016,-0.9056,-0.9135,-0.9192,-0.9262,-0.931,-0.9364,-0.9376,-0.9376,-0.9351,-0.9321,-0.9336,-0.9433,-0.9376,-0.9377,-0.9378,-0.9379,-0.9379,-0.8427,-0.8446,-0.8523,-0.8576,-0.8629,-0.8682,-0.871,-0.8774,-0.8822,-0.8893,-0.8943,-0.8995,-0.9068,-0.9168,-0.9213,-0.9256,-0.9279,-0.9279,-0.9279,-0.9277,-0.9269,-0.9317,-0.9269,-0.9269,-0.927,-0.927,-0.9271,0,-0.8344,-0.8398,-0.8446,-0.8526,-0.8568,-0.8619,-0.8687,-0.8718,-0.8764,-0.8828,-0.8878,-0.8942,-0.8999,-0.9079,-0.9142,-0.9161,-0.9188,-0.9174,-0.9173,-0.9183,-0.9244,-0.9237,-0.9152,-0.9152,-0.9152,-0.9152,-0.9152,-0.9152,-0.8305,-0.8341,-0.839,-0.8455,-0.851,-0.8562,-0.8596,-0.8646,-0.8698,-0.8766,-0.8815,-0.8868,-0.8939,-0.9008,-0.9063,-0.9086,-0.9104,-0.9083,-0.9112,-0.9168,-0.9178,-0.9189,-0.9182,-0.9087,-0.9086,-0.9047,-0.9047,-0.9047]},{"header":{"parameterUnit":"m.s-1","parameterCategory":1,"la1":30.2991,"la2":30.254,"lo1":-89.0895,"lo2":-89.0444,"dy":0.0017,"dx":0.0017,"nx":28,"ny":28,"refTime":"2024-02-26T03:00:00:Z","depth":0,"parameterNumber":3,"parameterNumberName":"V-component_of_WINDS"},"data":[0,0,0,0,0,0,0,0,0,0,0,0,0,0,0,0,0,0,0,0,0,0,0,0,0,0,0,0,0,0,0,0,0,0,0,0,0,0,0,0,0,0,0,0,0,0,0,0,0,0,0,0,0,0,0,0,0,0,4.7097,4.7097,0,4.7126,4.7126,4.7127,4.7101,4.71,4.7099,4.7098,4.7131,4.7132,4.7134,0,0,0,0,0,0,0,0,0,0,0,0,0,4.7023,4.7025,4.7097,4.7097,4.7098,4.7126,4.7126,4.7127,4.7101,4.71,4.7098,4.7097,4.713,4.7132,4.7135,0,0,0,0,0,0,0,0,0,0,0,0,0,4.7054,4.7025,4.7097,4.7088,4.7088,4.7126,4.7126,4.7127,4.7101,4.71,4.7098,4.7097,4.7129,4.7132,4.7135,4.7184,0,0,4.7143,4.7145,0,0,0,0,0,0,0,0,4.7052,4.7057,4.7089,4.7089,4.7088,4.7108,4.7112,4.7146,4.7102,4.7096,4.7098,4.7096,4.7125,4.7128,4.7137,4.7185,4.7187,4.7144,4.7145,4.7146,4.7147,0,0,0,0,0,0,0,4.705,4.7056,4.7109,4.709,4.7089,4.7084,4.7087,4.7119,4.7119,4.7097,4.7095,4.7098,4.7124,4.7134,4.7137,4.7187,4.7144,4.7146,4.7148,4.7149,4.7279,4.728,0,0,0,0,0,0,4.7049,4.7054,4.7108,4.7109,4.7066,4.7087,4.709,4.7103,4.7119,4.7119,4.71,4.7097,4.713,4.7134,4.7138,4.7197,4.7146,4.7149,4.7151,4.7277,4.7279,4.7281,0,0,0,0,0,0,4.7047,4.7054,4.7106,4.7081,4.7087,4.709,4.7105,4.7105,4.7115,4.7121,4.7121,4.711,4.7129,4.7134,4.7173,4.7198,4.715,4.7153,4.7275,4.7278,4.728,4.7315,0,0,0,0,0,0,4.7045,4.7053,4.7071,4.7082,4.7089,4.7139,4.7107,4.7107,4.7119,4.7116,4.713,4.7131,4.7128,4.7169,4.7175,4.7201,4.7155,4.7273,4.7276,4.7279,4.7312,4.7319,4.7325,0,0,0,0,0,4.7043,4.708,4.7072,4.7079,4.7111,4.7141,4.7145,4.714,4.7121,4.714,4.7144,4.7131,4.7194,4.7173,4.718,4.7207,4.7271,4.7275,4.7279,4.7309,4.7317,4.7325,0,0,0,0,0,0,4.7074,4.7082,4.7073,4.7115,4.7127,4.7136,4.7159,4.7149,4.7168,4.7164,4.7158,4.7161,4.7202,4.7208,4.7184,4.7256,4.723,4.7235,4.725,4.7258,4.7264,4.7262,4.7157,0,0,0,0,0,4.7085,4.7108,4.7114,4.7151,4.7157,4.7157,4.717,4.7165,4.7178,4.7184,4.719,4.7205,4.7228,4.7243,4.7265,4.7313,4.7316,4.7335,4.7341,4.7347,4.7352,4.7378,4.7387,4.7294,4.7294,4.7294,0,0,4.711,4.7117,4.7132,4.7157,4.7166,4.719,4.7162,4.7189,4.7207,4.7188,4.7224,4.723,4.7246,4.7289,4.7308,4.7296,4.7378,4.7352,4.7356,4.7358,4.7383,4.7392,4.74,4.7297,4.7296,4.7296,0,0,4.7167,4.7175,4.7206,4.7216,4.7229,4.7229,4.7237,4.7248,4.725,4.7286,4.7273,4.7295,4.7335,4.7347,4.7358,4.742,4.7409,4.7428,4.7461,4.7488,4.7495,4.7501,4.7524,4.7533,4.7433,4.7433,4.7433,0,4.7197,4.7231,4.7224,4.7252,4.7264,4.7246,4.7279,4.7289,4.731,4.7319,4.7304,4.7354,4.7363,4.7409,4.7424,4.7434,4.7444,4.7426,4.7494,4.7501,4.7507,4.7528,4.7537,4.7435,4.7435,4.7434,4.7434,0,4.7267,4.7292,4.7316,4.7335,4.7349,4.738,4.7378,4.7394,4.7388,4.739,4.7427,4.7438,4.7462,4.7472,4.7467,4.7518,4.751,4.7495,4.7468,4.7518,4.7538,4.7547,4.7438,4.7437,4.7437,4.7436,0,0,4.7345,4.7359,4.7368,4.7377,4.7391,4.741,4.744,4.7462,4.7477,4.7492,4.7517,4.7552,4.7538,4.7551,4.7547,4.757,4.7619,4.7552,4.7552,4.7564,4.7678,4.7689,4.7699,4.7612,4.7613,4.7615,4.7676,0,4.7403,4.7453,4.7448,4.7496,4.752,4.7504,4.753,4.7542,4.7545,4.7566,4.757,4.7594,4.7574,4.7581,4.7603,4.7608,4.7642,4.7604,4.7637,4.7638,4.7634,4.7709,4.7721,4.7779,4.7684,4.7686,4.7687,0,4.7477,4.7494,4.7545,4.7555,4.7565,4.7588,4.7608,4.7628,4.7642,4.7643,4.7657,4.765,4.7681,4.7654,4.7698,4.7673,4.7686,4.7691,4.7693,4.7696,4.7666,4.7715,4.7797,4.7806,4.7699,4.7698,4.7697,0,4.753,4.7565,4.76,4.7608,4.7621,4.7638,4.7644,4.7656,4.767,4.7689,4.7698,4.772,4.7732,4.775,4.7749,4.7729,4.7795,4.7767,4.7797,4.7797,4.7812,4.7811,4.7898,4.782,4.782,4.7819,4.7819,0,4.7595,4.7627,4.7623,4.7645,4.768,4.7674,4.771,4.7715,4.7726,4.7749,4.7737,4.776,4.7757,4.778,4.778,4.7817,4.7822,4.7825,4.7824,4.7826,4.7826,4.7835,4.7831,4.7822,4.7821,4.7821,4.782,0,4.766,4.7658,4.7695,4.7705,4.7708,4.7734,4.7742,4.7763,4.7765,4.7795,4.7802,4.7805,4.7832,4.7832,4.7863,4.7863,4.7909,4.7903,4.7903,4.7903,4.7933,4.793,4.8029,4.8042,4.7955,4.7956,4.7956,0,4.7702,4.7726,4.7737,4.7751,4.7759,4.7782,4.7795,4.7791,4.7806,4.7824,4.7843,4.7868,4.7888,4.7932,4.7938,4.7962,4.7958,4.7991,4.7961,4.7962,4.7959,4.7958,4.7961,4.7997,4.7998,4.7998,4.7999,0,4.7777,4.7775,4.7795,4.7814,4.7831,4.7846,4.7861,4.7873,4.787,4.7888,4.7915,4.793,4.7961,4.7987,4.801,4.8019,4.8009,4.8008,4.8016,4.8019,4.8018,4.8019,4.792,4.8006,4.8005,4.8005,4.8004,4.8004,4.7832,4.7853,4.7864,4.7887,4.7897,4.791,4.7931,4.7935,4.7956,4.798,4.7976,4.8006,4.8021,4.805,4.8061,4.8085,4.8074,4.8086,4.8089,4.8092,4.8096,4.8014,4.809,4.8089,4.8089,4.8089,4.8089,0,4.7907,4.7913,4.7934,4.7954,4.7972,4.796,4.7975,4.7992,4.8017,4.8031,4.8051,4.8082,4.8107,4.8115,4.8139,4.8157,4.8154,4.8164,4.8163,4.8165,4.8104,4.8094,4.8167,4.8167,4.8167,4.8167,4.8167,4.8167,4.7948,4.7983,4.7982,4.8022,4.8029,4.8056,4.8066,4.808,4.809,4.8125,4.8145,4.815,4.8162,4.8187,4.821,4.8212,4.8222,4.8235,4.8235,4.8177,4.817,4.8162,4.8153,4.8237,4.8237,4.8294,4.8295,4.8295]}]]